Preview of NWS' New Version of Forecast
This preview is not operational and should not be used for support decisions.

Regional Weather Roundup (RWR)

Issued by National Weather Service (NWS)

                            
000
ASUS44 KMEG 220000
RWRTN 
TENNESSEE HOURLY STATE WEATHER ROUNDUP
NATIONAL WEATHER SERVICE MEMPHIS TN
700 PM CDT SAT SEP 21 2019

TNZ002-004-019-021-049-052-054-088>092-220100-
WEST TENNESSEE
  
CITY           SKY/WX    TMP DP  RH WIND       PRES   REMARKS
MEMPHIS INTL   FAIR      84  59  42 S7        30.11S                  
NWS MEMPHIS      N/A     84 N/A N/A MISG        N/A                   
JACKSON        FAIR      81  60  48 SE5       30.13S                  
DYERSBURG      FAIR      82  61  48 CALM      30.11F                  
$$

TNZ008-025-027-028-033-062-065-066-220100-
NORTH MIDDLE TENNESSEE
  
CITY           SKY/WX    TMP DP  RH WIND       PRES   REMARKS
NASHVILLE      FAIR      82  52  35 S3        30.16S                  
CLARKSVILLE    FAIR      82  56  40 S3        30.13S                  
SMYRNA         FAIR      78  58  49 CALM      30.17S                  
CROSSVILLE     FAIR      73  57  57 CALM      30.25S                  
$$

TNZ061-075-076-078-094-096-097-220100-
SOUTH MIDDLE TENNESSEE
  
CITY           SKY/WX    TMP DP  RH WIND       PRES   REMARKS
$$

TNZ017-018-042-046-047-220100-
NORTHEAST TENNESSEE
  
CITY           SKY/WX    TMP DP  RH WIND       PRES   REMARKS
TRI CITIES     FAIR      74  60  61 N3        30.22S                  
$$

TNZ012-013-036-069-073-074-220100-
CENTRAL EAST TENNESSEE
  
CITY           SKY/WX    TMP DP  RH WIND       PRES   REMARKS
KNOXVILLE      FAIR      81  58  45 NW5       30.18S                  
OAK RIDGE      FAIR      80  59  48 CALM      30.20S                  
$$

TNZ083-085-099-220100-
SOUTHEAST TENNESSEE
  
CITY           SKY/WX    TMP DP  RH WIND       PRES   REMARKS
CHATTANOOGA    FAIR      84  56  38 CALM      30.18S                  
$$

SKY/WX REPORTED AS FAIR MEANS FEW OR NO CLOUDS BELOW
12 THOUSAND FEET.